Location: Unspecified
(0.0000°N, 0.0000°E)
Time: 08:34:27
(UTC+00:00)

Transit 4A - Pass Details

Date: 02 June 2022
Orbit: 864 x 980 km, 66.8° (Epoch: 24 June)

Event Time Altitude Azimuth Distance (km) Brightness Sun altitude
Rises 00:59:39 0° 210° (SSW) 3,582 - -63.2°
Reaches altitude 10° 01:02:13 10° 215° (SW) 2,653 - -62.9°
Maximum altitude 01:08:12 51° 290° (WNW) 1,186 - -62.0°
Drops below altitude 10° 01:14:19 10° 4° (N) 2,706 - -61.1°
Sets 01:16:58 0° 10° (N) 3,658 - -60.6°
